Tracking 28790 objects as of 19-Apr-2024
HD Live streaming from Space Station
objects crossing your sky now

SL-14 R/B

Track SL-14 R/B now!
10-day predictions
SL-14 R/B is classified as:


NORAD ID: 21423
Int'l Code: 1991-042B
Perigee: 622.4 km
Apogee: 646.2 km
Inclination: 82.5 °
Period: 97.3 minutes
Semi major axis: 7005 km
RCS: 4.7234 m2 (large)
Launch date: June 13, 1991
Source: Commonwealth of Independent States (former USSR) (CIS)
Launch site: PLESETSK MISSILE AND SPACE COMPLEX (PKMTR)

Note: This is a ROCKET BODY
Your satellite tracking list
Your tracking list is empty




NASA's NSSDC Master Catalog

Two Line Element Set (TLE):
1 21423U 91042B   24109.55565595  .00000983  00000-0  12466-3 0  9991
2 21423  82.4925 146.8787 0017017 352.9086   7.1883 14.80688545771948
Source of the keplerian elements: AFSPC